Temp
15 16 16 16 16 17 17 17 17 18 18 19 19 19 20 20 21 22 22 23 24 24 25 26 26 26 27 28 29 29 28 28 27 26 26 25 23 23 23 23 25 25 26 26 26 27 25
15 15 16 16 16 16 17 17 17 17 18 19 19 19 20 20 21 21 22 23 24 25 25 26 26 26 27 27 28 28 28 28 28 27 27 25 27 26 24 26 27 27 26 26 26 26 25
14 15 15 16 16 16 16 17 17 17 17 18 19 19 20 20 21 21 22 23 24 25 25 26 26 27 27 28 28 28 28 28 28 28 28 28 27 26 27 27 27 27 26 26 25 25 24
14 14 14 15 15 16 16 16 17 17 17 18 19 19 20 20 21 21 22 23 24 24 25 26 26 26 28 29 29 29 29 28 28 27 27 26 26 25 26 28 28 26 25 25 26 26 25
14 14 14 15 15 15 16 16 16 17 17 18 18 19 20 20 21 22 22 23 24 24 25 25 26 26 28 29 29 29 29 29 29 28 28 27 25 26 27 25 24 24 24 25 26 25 24
13 13 14 14 15 15 15 16 16 17 17 18 18 19 19 20 21 22 22 23 24 24 24 24 25 26 28 29 29 29 30 29 29 28 29 27 27 23 21 23 24 25 24 25 25 24 25
13 13 13 14 14 15 15 15 16 16 17 18 18 19 20 20 21 22 23 23 23 23 23 25 26 26 28 29 29 30 30 30 29 29 26 27 24 24 25 25 26 25 25 25 25 25 25
13 13 13 13 14 14 15 15 16 16 17 17 18 19 20 20 22 22 22 22 21 20 20 26 26 25 27 27 27 30 30 30 28 26 26 24 23 26 25 24 25 24 24 25 25 24 26
13 13 13 13 14 14 14 15 15 16 16 17 18 19 20 21 22 22 22 21 21 21 20 24 26 27 27 27 27 29 29 29 28 26 26 25 26 27 27 26 29 26 24 24 26 25 25
12 13 13 13 13 14 14 14 15 15 16 17 17 19 20 21 22 21 22 22 22 23 16 20 23 27 27 28 27 30 30 30 27 26 25 25 26 28 26 28 27 29 26 25 23 23 23
12 12 12 13 13 13 14 14 15 15 16 17 17 18 19 20 21 21 22 22 23 23 20 24 23 27 27 28 29 29 30 30 26 27 25 26 28 28 27 29 27 29 28 26 24 22 23
11 11 12 12 12 13 13 14 14 15 16 17 17 18 19 20 21 21 22 22 23 18 20 25 25 24 25 26 28 29 29 29 29 26 25 24 27 28 27 29 28 27 25 21 19 20 22
11 11 11 12 12 12 13 13 14 15 16 17 17 18 19 20 21 21 22 23 18 18 22 26 25 24 24 24 26 27 26 25 24 25 25 25 26 27 29 29 27 26 23 21 24 22 22
10 10 10 11 11 12 12 13 14 14 15 16 18 19 20 20 21 21 22 18 19 20 19 21 24 23 23 24 25 25 25 24 24 23 21 23 25 27 28 27 27 27 24 21 26 23 23
10 10 11 11 11 11 11 12 13 14 15 16 18 19 21 21 21 21 21 16 17 18 22 22 22 24 24 24 25 25 23 22 23 22 24 23 25 25 26 27 28 26 25 23 18 18 21
10 11 10 10 11 11 11 12 12 14 15 16 17 19 19 19 20 20 16 15 17 18 21 22 23 24 22 23 24 22 21 23 25 22 26 25 25 25 27 27 26 26 22 24 19 24 25
9 10 10 10 10 10 11 11 12 13 14 15 17 18 18 19 19 19 15 14 17 20 21 22 22 23 22 23 21 21 23 24 24 22 24 21 23 25 26 26 24 24 24 18 18 19 20
10 9 9 9 10 10 10 11 11 12 14 15 15 12 17 17 16 9 11 15 20 21 22 22 21 21 22 24 22 21 24 25 27 24 24 22 19 23 24 25 25 25 25 21 21 23 18
9 9 8 8 8 10 9 10 11 11 12 13 13 14 16 16 13 11 13 17 20 21 20 21 21 21 21 24 23 22 21 26 27 24 22 22 21 22 23 24 25 27 24 18 17 16 19
9 9 8 7 6 8 9 10 11 11 12 12 12 10 15 15 15 14 15 18 18 21 20 21 20 21 23 23 21 23 25 27 27 27 29 26 18 22 22 24 24 27 25 21 21 20 19
9 9 9 8 7 7 9 9 10 11 11 12 12 10 10 10 12 11 13 15 18 19 20 20 20 19 21 21 23 21 23 25 26 24 23 22 23 20 22 23 25 27 26 22 24 22 25
8 8 8 8 8 8 8 9 10 10 11 11 11 10 11 10 11 11 11 15 17 18 18 18 19 20 20 19 21 24 24 24 26 22 21 19 23 21 25 24 23 26 25 24 24 21 23
8 8 8 8 8 8 8 9 9 10 10 10 10 9 8 10 10 11 12 14 16 16 17 19 20 20 20 20 23 24 24 26 26 26 21 20 18 19 23 23 25 24 25 24 25 23 22
8 8 8 8 8 8 8 8 9 9 9 9 9 7 7 9 10 12 13 13 13 16 15 17 18 19 23 24 24 24 24 23 23 22 22 18 18 17 20 22 24 24 24 26 25 24 21
8 8 8 8 8 8 8 8 9 9 9 9 8 7 7 9 10 11 12 13 13 15 14 16 17 21 22 22 20 21 20 24 25 18 20 18 17 17 20 19 22 27 26 25 25 26 23
8 8 8 8 8 8 8 8 8 8 9 9 9 7 7 8 9 11 11 12 11 11 12 16 20 21 21 16 18 21 21 22 24 24 16 15 16 20 16 23 24 23 25 25 26 23 23
8 7 7 7 7 7 8 7 8 8 8 8 8 6 7 7 10 11 10 11 13 13 11 13 16 18 19 15 17 18 20 21 23 25 24 18 16 19 17 22 21 21 24 26 25 24 24
8 7 7 7 6 6 7 7 7 8 8 8 8 7 6 7 9 11 11 12 12 13 11 15 14 16 15 15 16 16 18 19 20 21 22 21 19 18 16 21 24 23 23 25 23 23 24
7 7 7 7 7 6 7 7 7 6 7 7 7 6 6 6 8 11 12 13 13 13 13 13 14 15 17 14 14 13 17 15 16 21 19 21 18 19 19 19 19 20 21 25 25 25 24
Height
1556 1554 1553 1551 1549 1548 1547 1545 1544 1543 1541 1540 1539 1538 1537 1536 1534 1532 1531 1530 1529 1529 1529 1528 1530 1531 1531 1531 1530 1529 1529 1530 1530 1531 1532 1532 1532 1533 1535 1532 1532 1533 1533 1533 1533 1533 1536
1557 1556 1554 1552 1551 1549 1548 1546 1544 1543 1541 1540 1539 1538 1537 1535 1534 1532 1530 1529 1528 1528 1528 1528 1527 1529 1531 1532 1530 1529 1529 1530 1531 1531 1531 1531 1532 1533 1534 1531 1532 1532 1534 1535 1534 1536 1539
1558 1556 1555 1553 1551 1550 1548 1546 1545 1543 1541 1540 1538 1537 1536 1534 1533 1531 1530 1528 1528 1527 1527 1527 1527 1527 1528 1529 1529 1529 1530 1530 1531 1532 1532 1531 1533 1536 1534 1530 1531 1532 1538 1536 1536 1537 1541
1558 1557 1556 1554 1552 1550 1549 1547 1545 1543 1541 1539 1538 1536 1535 1533 1532 1531 1529 1527 1527 1527 1526 1526 1526 1527 1527 1526 1526 1527 1529 1529 1530 1531 1532 1534 1534 1536 1535 1531 1533 1536 1540 1549 1539 1538 1541
1559 1558 1556 1555 1553 1551 1549 1547 1545 1543 1541 1539 1537 1535 1534 1532 1530 1529 1527 1526 1526 1526 1526 1526 1526 1526 1525 1524 1524 1525 1526 1528 1530 1530 1531 1532 1534 1534 1533 1536 1545 1542 1555 1550 1542 1538 1540
1561 1559 1557 1555 1554 1552 1550 1547 1545 1543 1541 1538 1536 1534 1533 1531 1529 1528 1526 1525 1525 1525 1525 1526 1526 1529 1522 1522 1522 1524 1526 1527 1529 1529 1530 1530 1531 1534 1536 1542 1563 1551 1551 1544 1547 1539 1540
1563 1560 1558 1556 1554 1552 1550 1548 1545 1543 1540 1538 1535 1533 1531 1529 1527 1526 1526 1525 1528 1527 1523 1521 1521 1520 1519 1520 1520 1521 1523 1525 1526 1528 1530 1528 1536 1543 1535 1530 1529 1536 1540 1542 1537 1536 1540
1564 1562 1560 1557 1555 1553 1550 1548 1545 1542 1540 1537 1534 1532 1530 1528 1526 1525 1525 1525 1527 1530 1523 1517 1517 1516 1516 1519 1520 1518 1521 1523 1524 1530 1530 1538 1542 1528 1525 1524 1528 1534 1541 1542 1536 1536 1540
1565 1563 1560 1558 1556 1553 1551 1548 1545 1542 1539 1536 1533 1531 1529 1527 1525 1526 1526 1526 1526 1526 1525 1513 1511 1511 1514 1518 1518 1516 1519 1520 1524 1530 1531 1537 1526 1519 1520 1523 1523 1529 1537 1539 1539 1540 1542
1565 1562 1560 1558 1556 1554 1551 1548 1545 1541 1538 1535 1532 1530 1528 1527 1528 1525 1526 1527 1525 1524 1534 1515 1507 1505 1509 1514 1514 1513 1515 1519 1522 1527 1528 1529 1521 1520 1522 1523 1524 1531 1522 1529 1539 1547 1565
1565 1563 1560 1558 1556 1553 1550 1547 1544 1541 1537 1534 1531 1528 1527 1526 1525 1526 1527 1525 1524 1524 1559 1505 1502 1501 1501 1506 1508 1509 1511 1514 1520 1522 1526 1529 1521 1522 1527 1521 1520 1525 1517 1528 1537 1549 1553
1565 1562 1560 1557 1555 1552 1549 1546 1542 1539 1536 1533 1530 1526 1525 1524 1524 1525 1525 1525 1525 1542 1551 1504 1498 1499 1502 1502 1504 1506 1508 1512 1515 1519 1522 1523 1520 1520 1520 1516 1517 1521 1526 1539 1549 1560 1577
1565 1562 1560 1557 1554 1551 1548 1544 1541 1537 1533 1530 1527 1524 1522 1521 1522 1523 1523 1525 1543 1554 1510 1504 1501 1499 1502 1504 1504 1503 1508 1514 1523 1536 1536 1524 1520 1514 1514 1520 1519 1525 1540 1576 1574 1582 1581
1564 1562 1559 1556 1553 1550 1547 1543 1539 1535 1531 1527 1523 1521 1518 1519 1519 1521 1523 1527 1547 1524 1519 1502 1499 1501 1506 1502 1503 1504 1509 1520 1515 1521 1541 1542 1544 1516 1510 1515 1524 1525 1534 1571 1575 1586 1574
1562 1560 1558 1555 1552 1549 1546 1542 1537 1533 1529 1524 1519 1516 1514 1514 1515 1517 1522 1540 1531 1522 1508 1506 1502 1505 1505 1501 1502 1505 1512 1517 1512 1514 1533 1540 1535 1511 1509 1508 1510 1525 1539 1533 1570 1578 1578
1560 1558 1556 1554 1551 1548 1545 1540 1535 1531 1527 1521 1516 1513 1511 1510 1511 1515 1519 1527 1517 1509 1506 1504 1509 1501 1513 1506 1507 1512 1515 1501 1505 1504 1504 1517 1536 1512 1507 1507 1513 1516 1522 1547 1562 1575 1572
1559 1556 1554 1552 1550 1547 1544 1540 1535 1530 1525 1520 1515 1511 1510 1508 1510 1514 1519 1516 1509 1505 1507 1507 1507 1506 1503 1504 1505 1511 1507 1498 1495 1501 1504 1515 1526 1523 1510 1514 1520 1524 1528 1543 1551 1562 1579
1557 1554 1552 1550 1547 1545 1543 1539 1535 1529 1524 1519 1516 1516 1510 1510 1512 1514 1516 1508 1505 1504 1505 1505 1504 1503 1500 1497 1503 1505 1500 1494 1486 1492 1508 1508 1525 1534 1522 1505 1505 1507 1517 1528 1554 1557 1566
1555 1552 1550 1548 1545 1543 1541 1539 1536 1531 1526 1521 1517 1513 1510 1510 1517 1515 1508 1505 1503 1504 1504 1504 1504 1500 1498 1496 1503 1496 1493 1479 1482 1488 1499 1504 1524 1541 1529 1516 1509 1508 1512 1525 1535 1545 1560
1553 1551 1548 1546 1544 1541 1539 1538 1535 1532 1528 1524 1520 1518 1511 1512 1511 1512 1509 1504 1504 1500 1500 1499 1498 1498 1498 1497 1494 1492 1486 1476 1476 1480 1481 1487 1516 1521 1538 1518 1507 1510 1508 1516 1522 1546 1551
1552 1549 1547 1545 1542 1539 1538 1536 1534 1531 1528 1526 1523 1521 1520 1517 1511 1511 1512 1506 1502 1503 1497 1496 1493 1493 1498 1501 1492 1493 1485 1478 1477 1477 1481 1486 1507 1511 1503 1500 1500 1499 1503 1511 1515 1518 1524
1551 1548 1545 1543 1541 1539 1537 1535 1532 1530 1527 1526 1525 1524 1521 1517 1512 1510 1506 1502 1499 1498 1497 1493 1494 1486 1492 1498 1489 1485 1479 1479 1476 1479 1483 1485 1498 1502 1500 1498 1500 1501 1498 1502 1504 1512 1510
1549 1546 1544 1542 1539 1537 1535 1533 1531 1528 1527 1526 1525 1524 1523 1514 1511 1510 1506 1504 1499 1499 1489 1484 1482 1486 1487 1481 1476 1471 1472 1471 1470 1473 1483 1487 1499 1509 1515 1500 1502 1514 1497 1496 1492 1493 1497
1547 1544 1542 1540 1538 1535 1533 1531 1529 1527 1526 1526 1525 1524 1523 1516 1511 1506 1502 1502 1501 1498 1496 1482 1482 1483 1471 1473 1472 1468 1467 1467 1469 1468 1471 1487 1495 1506 1516 1508 1527 1490 1476 1476 1482 1481 1481
1545 1542 1539 1537 1535 1533 1532 1530 1528 1526 1525 1524 1523 1523 1522 1516 1511 1503 1501 1500 1497 1491 1486 1478 1475 1471 1470 1470 1474 1477 1479 1470 1465 1471 1470 1472 1488 1510 1515 1524 1503 1477 1474 1478 1483 1478 1467
1543 1540 1537 1535 1532 1531 1529 1528 1526 1525 1523 1522 1520 1519 1520 1517 1505 1501 1502 1499 1498 1494 1485 1475 1470 1465 1464 1466 1474 1484 1489 1479 1476 1471 1473 1475 1478 1489 1516 1507 1514 1483 1468 1468 1471 1490 1462
1541 1538 1535 1532 1530 1528 1527 1525 1523 1522 1520 1519 1517 1517 1517 1514 1500 1500 1500 1497 1495 1494 1490 1480 1475 1464 1461 1467 1478 1484 1482 1470 1479 1473 1474 1487 1491 1496 1509 1500 1490 1468 1466 1467 1493 1482 1457
1539 1536 1533 1531 1528 1526 1524 1522 1521 1519 1517 1516 1514 1513 1513 1507 1495 1494 1495 1494 1493 1492 1491 1481 1478 1467 1463 1472 1475 1478 1478 1476 1475 1472 1472 1479 1489 1496 1502 1498 1495 1462 1465 1474 1463 1458 1458
1537 1535 1531 1528 1526 1523 1521 1519 1518 1516 1514 1512 1511 1510 1509 1506 1492 1488 1486 1484 1485 1487 1487 1487 1481 1476 1468 1471 1473 1473 1474 1477 1481 1483 1470 1479 1477 1484 1483 1482 1467 1464 1461 1455 1458 1457 1457
Wind_Speed
12 11 11 11 12 12 12 11 10 9 9 9 8 8 8 7 7 6 6 6 7 6 6 7 5 4 3 2 1 1 6 6 6 7 7 7 6 2 1 3 7 1 3 5 9 9 17
14 12 12 12 12 13 13 12 12 11 10 9 9 9 8 8 7 7 6 6 7 7 7 7 7 4 3 2 1 0 5 7 5 6 7 10 4 4 5 5 3 2 6 4 10 10 11
14 14 13 12 12 13 13 13 13 13 12 11 10 10 9 8 8 8 7 7 7 8 8 7 7 7 7 5 3 2 2 3 4 6 10 13 13 7 5 2 4 10 3 3 3 7 5
14 14 14 13 13 13 13 13 14 14 14 13 12 11 10 9 8 8 7 7 8 7 8 7 7 7 5 6 13 12 9 9 9 10 12 16 13 13 7 7 3 5 4 1 1 5 4
14 14 14 13 13 14 14 14 14 15 15 14 14 13 12 11 9 7 8 7 7 7 7 7 7 7 5 10 15 13 15 12 4 8 9 13 3 8 4 4 4 3 3 4 3 6 3
15 14 14 14 13 13 14 14 14 14 15 15 15 14 14 13 10 7 6 4 3 5 6 7 7 3 13 7 9 11 10 10 9 5 2 4 6 2 3 3 3 6 4 3 5 5 3
15 15 14 14 14 14 14 15 15 15 15 16 16 15 15 14 11 7 1 2 0 1 7 8 3 6 3 9 4 10 14 8 10 4 1 5 4 6 7 7 6 6 5 7 3 5 4
15 15 16 15 15 15 14 15 15 16 17 17 17 17 15 14 11 6 5 6 9 7 9 15 22 24 23 11 7 9 11 8 3 3 1 4 7 5 7 7 4 5 5 5 3 5 3
15 16 16 16 17 17 17 16 16 17 18 18 18 17 16 14 10 3 4 4 9 9 3 10 18 22 22 13 11 12 15 10 4 4 5 6 5 8 5 2 1 2 6 5 4 4 3
15 15 15 16 16 17 18 19 18 18 18 19 19 18 16 13 6 3 5 5 12 0 4 7 6 10 15 9 7 22 14 13 3 8 5 5 4 3 6 2 4 3 7 7 11 6 4
15 15 16 17 17 18 18 19 20 20 20 20 20 19 16 12 11 4 2 8 3 1 3 3 5 3 14 14 8 13 17 17 7 5 5 5 1 5 6 3 4 6 5 6 4 5 5
15 15 15 17 18 19 20 21 21 22 22 21 20 21 17 14 10 6 5 6 5 6 6 3 5 5 5 5 7 4 8 11 7 5 1 7 2 3 7 1 2 2 7 9 6 4 2
15 16 16 17 18 19 21 22 22 23 24 23 21 20 19 14 9 4 3 1 5 3 5 1 3 3 2 4 4 5 6 5 6 4 3 5 4 3 5 2 2 4 6 3 3 3 5
15 15 16 17 18 19 20 22 23 24 25 25 23 20 19 14 11 7 5 4 4 4 6 5 1 2 8 5 2 2 5 4 2 5 3 4 6 5 3 8 7 2 7 6 4 3 4
15 16 16 17 19 20 20 23 25 26 27 27 24 20 17 11 8 11 7 2 8 7 4 6 5 3 4 3 6 4 6 6 9 9 8 5 6 4 5 3 6 2 2 4 8 3 2
16 16 16 16 17 19 21 24 28 27 28 28 27 21 9 8 9 14 4 7 5 4 5 3 2 1 7 5 6 7 8 5 6 13 6 5 3 5 3 5 4 4 7 4 3 4 3
18 18 16 17 17 18 20 22 26 29 28 26 22 10 11 8 13 13 5 7 6 8 4 2 2 3 4 5 8 6 7 4 6 4 6 6 4 6 2 4 8 1 0 7 5 4 5
17 14 14 16 18 17 18 20 23 27 28 25 11 5 11 6 2 1 3 6 2 3 1 3 2 4 4 2 5 6 11 9 18 17 9 6 5 4 12 4 3 4 6 6 5 4 1
16 14 12 15 17 16 16 18 20 25 25 26 19 7 6 16 1 3 4 4 4 2 3 2 3 5 1 2 4 6 7 12 17 10 10 8 2 2 11 4 1 4 4 6 5 4 6
15 16 16 15 16 17 13 15 17 21 22 22 8 4 3 6 2 0 4 4 3 6 8 8 6 9 3 5 6 4 3 3 21 17 27 21 5 8 8 8 4 3 6 5 6 4 5
15 16 15 14 15 17 15 15 16 18 19 17 5 3 3 3 3 6 2 5 3 3 7 8 4 11 7 5 3 6 5 4 0 5 11 8 9 7 7 6 5 6 6 9 7 6 7
15 16 16 16 16 15 15 16 17 18 17 9 5 5 6 8 12 4 4 5 3 3 4 8 6 10 6 8 8 3 6 5 5 3 6 1 5 8 6 3 7 5 6 8 5 5 5
17 16 16 16 16 16 15 16 18 17 13 4 6 4 4 7 4 2 3 4 4 10 11 21 10 4 5 16 27 33 26 11 3 4 5 6 7 4 9 3 2 6 7 8 5 4 8
17 17 16 16 16 15 14 14 15 16 15 10 7 8 2 5 3 4 3 6 10 12 10 19 15 8 14 12 13 5 8 13 6 7 6 7 6 3 4 3 5 8 3 2 7 6 10
18 17 17 16 17 16 14 14 13 14 15 12 10 6 3 4 6 11 7 4 15 22 8 12 20 17 15 9 2 3 3 2 2 5 4 3 5 3 6 5 5 3 4 6 7 10 8
18 17 17 17 17 16 15 14 14 14 15 13 10 7 6 5 6 7 5 9 3 5 6 6 11 11 7 3 3 5 5 6 4 3 4 6 5 4 3 6 8 9 0 3 4 7 8
17 16 17 17 17 16 15 14 14 14 15 14 11 8 8 7 19 14 7 4 4 5 4 9 15 7 2 3 3 4 4 3 4 6 4 3 3 6 3 3 7 6 2 5 4 9 9
19 17 16 16 16 15 14 13 13 14 15 14 11 13 16 9 28 32 28 17 14 9 2 14 14 3 4 4 3 3 3 2 2 1 3 4 5 3 3 2 7 5 4 9 6 2 8
17 17 17 17 17 16 15 14 13 14 14 14 13 7 10 16 21 26 36 36 31 26 24 9 10 10 2 3 0 2 2 2 3 2 2 1 5 3 6 5 5 11 11 7 5 12 12
Wind_Direction
36 30 25 22 18 15 14 12 10 9 9 1 357 355 348 339 324 310 294 282 268 260 258 268 285 296 301 281 178 136 199 179 183 192 214 230 234 237 242 238 151 259 1 50 80 110 142
32 31 27 21 18 13 12 9 7 3 3 358 352 349 347 338 327 311 296 279 270 258 257 259 272 290 274 241 191 303 211 206 215 222 238 224 267 334 299 245 181 137 61 65 74 108 140
29 30 27 21 18 14 11 7 4 1 359 358 351 346 342 337 327 315 299 280 262 256 253 257 266 275 268 227 194 204 230 294 286 275 255 297 260 211 338 312 129 107 94 340 46 128 117
31 29 25 22 17 14 10 6 2 359 356 355 351 345 340 334 328 318 299 280 265 253 249 248 258 272 249 249 252 255 242 255 266 270 276 287 286 248 255 139 72 72 45 52 202 153 123
29 29 26 22 18 12 9 6 3 358 354 352 348 345 339 334 328 320 304 283 262 252 241 241 249 250 250 234 242 256 269 262 270 278 290 266 278 213 160 86 27 8 191 215 318 211 120
22 24 22 20 18 14 6 3 1 358 352 348 346 343 341 334 329 329 312 301 266 247 239 237 243 266 247 220 227 245 255 262 252 275 288 176 192 96 53 107 206 232 218 212 199 217 167
18 15 18 17 13 15 8 2 358 355 351 346 343 340 339 334 332 334 331 142 290 253 230 214 202 226 273 202 239 236 247 250 249 283 34 357 38 234 222 229 211 208 216 203 180 170 131
12 12 7 9 9 8 7 1 357 352 349 344 340 339 338 332 333 334 66 97 64 343 300 242 249 252 244 249 302 244 218 213 157 196 124 12 236 218 200 214 219 167 184 222 64 137 98
8 7 7 4 5 2 3 1 356 351 346 342 338 336 336 332 330 353 100 110 347 331 244 276 234 242 241 236 229 247 199 194 159 183 198 187 243 325 15 349 323 137 181 162 155 122 65
4 3 2 2 1 359 358 357 354 350 344 340 337 333 333 337 324 350 135 358 331 354 51 270 226 235 209 191 238 233 220 206 168 214 191 245 293 21 356 334 132 313 161 124 137 120 189
358 359 359 359 358 357 355 352 350 347 343 338 334 329 329 327 312 331 223 338 344 107 338 224 201 189 190 176 150 205 207 201 180 187 108 256 315 17 347 259 132 225 85 131 137 96 101
356 357 357 355 354 353 352 350 348 344 340 337 333 324 322 316 306 281 262 325 145 42 254 334 169 172 132 199 180 150 173 189 201 152 333 238 248 209 214 225 119 133 75 41 53 79 10
349 352 353 352 351 350 350 349 347 344 339 335 330 322 313 303 293 261 251 166 46 160 322 326 221 152 136 175 195 169 146 138 161 122 298 325 248 250 186 171 349 97 61 6 18 14 220
331 339 344 346 347 348 349 349 346 346 343 336 330 321 306 295 278 243 242 59 192 238 251 308 358 80 180 155 226 104 121 164 54 98 113 162 311 181 180 183 189 168 148 148 194 197 259
317 320 328 335 340 343 346 345 342 341 340 338 333 325 305 305 256 211 174 143 205 210 260 327 320 167 218 192 175 144 193 207 196 170 174 154 265 281 221 166 131 187 169 162 103 7 55
318 316 316 321 328 333 339 342 342 342 342 338 340 331 329 336 210 192 111 221 222 224 334 4 265 200 202 194 152 160 179 206 210 186 174 198 297 231 306 115 49 169 151 85 12 141 216
319 324 317 317 322 328 334 339 340 341 343 347 344 332 346 328 173 180 201 217 221 247 271 316 305 307 225 200 183 175 204 267 212 138 133 133 120 287 350 185 177 103 102 50 114 115 156
322 330 322 316 316 322 333 341 344 344 346 346 355 340 328 177 166 82 182 192 221 250 142 311 252 243 238 224 197 218 197 216 197 154 164 195 156 235 237 239 182 170 175 139 123 219 199
322 326 326 324 322 317 329 342 348 350 350 348 332 295 333 186 181 283 261 254 223 218 207 260 277 220 235 276 333 201 207 233 167 149 159 182 241 286 327 8 145 184 167 110 108 95 192
330 332 328 326 325 328 329 335 341 346 347 349 330 344 6 218 281 49 340 236 254 248 240 224 235 231 253 281 205 278 251 275 195 189 213 156 143 167 201 208 160 170 179 148 126 119 172
330 333 335 319 321 329 339 332 335 344 346 350 348 324 348 310 311 328 272 286 211 258 233 209 265 221 186 266 264 220 231 296 180 199 162 141 188 180 242 217 187 191 182 164 172 178 156
329 332 331 330 326 317 328 329 332 337 339 350 352 352 333 285 288 279 174 240 225 305 225 245 229 245 198 217 215 290 191 193 202 227 149 348 206 161 255 198 200 225 206 196 210 146 275
326 325 324 328 327 326 317 323 329 338 344 341 337 302 299 283 303 276 227 345 319 330 275 240 230 222 203 237 253 257 240 266 233 184 156 139 132 116 232 191 140 315 206 200 200 188 150
329 325 321 318 320 325 329 323 327 336 341 337 333 328 304 280 279 260 299 313 287 302 267 274 297 203 238 265 286 268 253 254 240 258 177 137 117 122 163 93 208 236 305 194 202 219 212
333 331 326 319 315 316 319 320 320 324 326 326 318 307 266 273 285 301 273 277 312 310 270 255 262 235 259 296 64 27 338 349 256 41 216 115 126 97 141 183 275 258 188 163 170 267 206
333 331 329 324 318 312 309 309 311 314 315 316 307 283 225 277 247 243 321 291 255 296 312 268 319 301 200 120 114 164 192 200 216 147 80 82 79 116 137 156 210 226 323 315 147 273 212
334 332 330 327 324 322 315 307 304 306 308 309 299 260 244 264 275 270 222 241 289 290 262 294 338 312 12 125 118 161 217 209 180 174 175 61 36 150 152 197 285 243 204 119 130 247 220
337 336 333 330 328 327 320 313 307 304 303 303 294 273 231 255 273 272 265 266 262 255 234 317 329 311 357 62 118 195 137 220 63 208 169 163 139 172 102 106 273 179 136 157 218 122 186
338 336 332 328 326 324 319 310 306 305 305 301 298 272 231 254 264 278 282 278 266 258 270 286 284 294 312 78 45 109 99 63 146 182 32 26 174 193 175 215 294 303 269 267 181 143 141